Goodland, KS

6:48 PM MDT on May 21, 2018 (GMT -0600)
Renner-Goodland Municipal

Weather History for KGLD - July, 2013

Change the Weather History Date:

Wednesday, July 17, 2013

  Actual Average Record
Temperature  
Mean Temperature 73 °F 76 °F  
Max Temperature 86 °F 90 °F 106 °F (1936)
Min Temperature 60 °F 62 °F 50 °F (1917)
Degree Days  
Heating Degree Days 0 0  
Month to date heating degree days 0 0  
Since 1 June heating degree days 31 37  
Since 1 July heating degree days 0 0  
Cooling Degree Days 8 11  
Month to date cooling degree days 197 180  
Year to date cooling degree days 543 400  
Since 1 June cooling degree days 454 359  
Growing Degree Days 25 (Base 50)    
Moisture  
Dew Point 59 °F    
Average Humidity 69    
Maximum Humidity 97    
Minimum Humidity 40    
Precipitation  
Precipitation 0.00 in 0.11 in 2.16 in (1993)
Month to date precipitation 0.02 1.89  
Year to date precipitation 7.42 11.62  
Snow  
Snow 0.00 in 0.00 in - ()
Month to date snowfall 0.0 0.0  
Since 1 June snowfall 0.0 0.0  
Since 1 July snowfall 0.0 0.0  
Snow Depth 0.00 in    
Sea Level Pressure  
Sea Level Pressure 30.22 in    
Wind  
Wind Speed 18 mph (South)    
Max Wind Speed 28 mph    
Max Gust Speed 36 mph    
Visibility 10 miles    
Events      
T = Trace of Precipitation, MM = Missing Value Source: NWS Daily Summary

Daily Weather History Graph

Daily Weather History Graph

Search for Another Location

Airport or City:

Astronomy

Jul. 17, 2013 Rise Set
Actual Time 5:34 AM MDT 8:11 PM MDT
Civil Twilight 5:02 AM MDT 8:42 PM MDT
Nautical Twilight 4:23 AM MDT 9:21 PM MDT
Astronomical Twilight 3:40 AM MDT 10:05 PM MDT
Moon 3:03 PM MDT (7/17) 12:41 AM MDT (7/17)
Length of Visible Light 15h 39m
Length of Day
14h 37m
Waxing Gibbous, 68% of the Moon is Illuminated
Jul 17
Waxing Gibbous
Jul 22
Full
Jul 29
Last Quarter
Aug 6
New
Aug 14
First Quarter

Hourly Weather History & Observations

Time (MDT) Temp. Heat Index Dew Point Humidity Pressure Visibility Wind Dir Wind Speed Gust Speed Precip Events Conditions
12:53 AM 62.1 °F - 57.9 °F 86% 30.22 in 10.0 mi South 10.4 mph - N/A   Clear
1:24 AM 62.6 °F - 59.0 °F 88% 30.33 in 10.0 mi South 9.2 mph - N/A   Scattered Clouds
1:33 AM 62.6 °F - 59.0 °F 88% 30.33 in 10.0 mi South 9.2 mph - N/A   Mostly Cloudy
1:53 AM 63.0 °F - 60.1 °F 90% 30.21 in 10.0 mi South 11.5 mph - N/A   Overcast
2:25 AM 62.6 °F - 59.0 °F 88% 30.33 in 10.0 mi South 12.7 mph - N/A   Scattered Clouds
2:53 AM 62.1 °F - 59.0 °F 90% 30.22 in 10.0 mi SSW 10.4 mph - N/A   Clear
3:53 AM 61.0 °F - 59.0 °F 93% 30.22 in 10.0 mi South 5.8 mph - N/A   Mostly Cloudy
4:17 AM 62.6 °F - 59.0 °F 88% 30.32 in 10.0 mi South 9.2 mph - N/A   Overcast
4:53 AM 63.0 °F - 59.0 °F 87% 30.21 in 10.0 mi South 11.5 mph - N/A   Mostly Cloudy
5:11 AM 62.6 °F - 59.0 °F 88% 30.32 in 10.0 mi South 11.5 mph - N/A   Mostly Cloudy
5:21 AM 62.6 °F - 59.0 °F 88% 30.32 in 10.0 mi South 11.5 mph - N/A   Scattered Clouds
5:53 AM 62.1 °F - 59.0 °F 90% 30.22 in 10.0 mi South 9.2 mph - N/A   Clear
6:53 AM 64.0 °F - 59.0 °F 84% 30.24 in 10.0 mi South 12.7 mph - N/A   Clear
7:15 AM 64.4 °F - 59.0 °F 83% 30.35 in 10.0 mi South 18.4 mph - N/A   Mostly Cloudy
7:53 AM 64.9 °F - 59.0 °F 81% 30.27 in 10.0 mi South 20.7 mph 26.5 mph N/A   Overcast
8:38 AM 68.0 °F - 60.8 °F 78% 30.37 in 10.0 mi South 17.3 mph - N/A   Overcast
8:53 AM 66.9 °F - 59.0 °F 76% 30.27 in 10.0 mi South 18.4 mph 27.6 mph N/A   Overcast
9:53 AM 71.1 °F - 60.1 °F 68% 30.26 in 10.0 mi South 16.1 mph 26.5 mph N/A   Overcast
10:04 AM 71.6 °F - 60.8 °F 69% 30.37 in 10.0 mi South 18.4 mph 25.3 mph N/A   Overcast
10:16 AM 71.6 °F - 60.8 °F 69% 30.37 in 10.0 mi South 17.3 mph 32.2 mph N/A   Overcast
10:53 AM 73.0 °F - 60.1 °F 64% 30.26 in 10.0 mi South 20.7 mph 28.8 mph N/A   Overcast
11:53 AM 77.0 °F - 59.0 °F 54% 30.24 in 10.0 mi South 23.0 mph 31.1 mph N/A   Partly Cloudy
12:53 PM 81.0 °F 81.1 °F 57.9 °F 45% 30.20 in 10.0 mi South 21.9 mph 33.4 mph N/A   Scattered Clouds
1:53 PM 84.9 °F 84.2 °F 57.9 °F 40% 30.17 in 10.0 mi South 23.0 mph 34.5 mph N/A   Partly Cloudy
2:53 PM 84.9 °F 83.9 °F 57.0 °F 38% 30.15 in 10.0 mi South 23.0 mph 29.9 mph N/A   Scattered Clouds
3:53 PM 84.0 °F 83.5 °F 57.9 °F 41% 30.14 in 10.0 mi South 18.4 mph 28.8 mph N/A   Scattered Clouds
4:53 PM 84.9 °F 83.9 °F 57.0 °F 38% 30.12 in 10.0 mi South 21.9 mph 29.9 mph N/A   Scattered Clouds
5:53 PM 84.0 °F 83.3 °F 57.0 °F 40% 30.11 in 10.0 mi South 21.9 mph 27.6 mph N/A   Scattered Clouds
6:53 PM 82.0 °F 81.4 °F 55.0 °F 39% 30.11 in 10.0 mi South 21.9 mph 32.2 mph N/A   Partly Cloudy
7:53 PM 79.0 °F - 55.9 °F 45% 30.12 in 10.0 mi South 20.7 mph 27.6 mph N/A   Clear
8:53 PM 75.9 °F - 57.0 °F 52% 30.13 in 10.0 mi South 19.6 mph - N/A   Clear
9:53 PM 73.9 °F - 57.9 °F 57% 30.13 in 10.0 mi South 16.1 mph - N/A   Clear
10:53 PM 72.0 °F - 59.0 °F 64% 30.13 in 10.0 mi South 17.3 mph 26.5 mph N/A   Clear
11:53 PM 70.0 °F - 59.0 °F 68% 30.11 in 10.0 mi South 16.1 mph - N/A   Clear